Time,TemperatureF,DewpointF,PressureIn,WindDirection,WindDirectionDegrees,WindSpeedMPH,WindSpeedGustMPH,Humidity,HourlyPrecipIn,Conditions,Clouds,dailyrainin,SoftwareType,DateUTC
2013-04-24 00:23:00,55.0,51.0,29.84,North,0,0.0,0.0,86,0.00,,,0.10,,2013-04-24 04:23:00,
2013-04-24 00:33:00,55.0,51.0,29.84,North,0,0.0,0.0,86,0.00,,,0.10,,2013-04-24 04:33:00,
2013-04-24 00:43:00,55.0,51.0,29.84,North,0,0.0,0.0,86,0.00,,,0.10,,2013-04-24 04:43:00,
2013-04-24 00:52:00,55.0,51.0,29.84,North,0,0.0,0.0,86,0.00,,,0.10,,2013-04-24 04:52:00,
2013-04-24 09:22:00,33.0,31.0,29.86,NW,322,2.0,8.0,92,0.00,,,0.10,,2013-04-24 13:22:00,
2013-04-24 09:32:00,33.0,31.0,29.86,NNE,30,5.0,9.0,92,0.00,,,0.10,,2013-04-24 13:32:00,
2013-04-24 09:42:00,33.0,31.0,29.86,NNE,30,5.0,9.0,92,0.00,,,0.10,,2013-04-24 13:42:00,
2013-04-24 09:52:00,33.0,31.0,29.86,North,10,5.0,12.0,91,0.00,,,0.10,,2013-04-24 13:52:00,
2013-04-24 10:01:00,34.0,32.0,29.87,NW,312,0.0,10.0,91,0.00,,,0.10,,2013-04-24 14:01:00,
2013-04-24 10:11:00,34.0,32.0,29.87,NW,312,0.0,10.0,91,0.00,,,0.10,,2013-04-24 14:11:00,
2013-04-24 10:21:00,34.0,31.0,29.86,NNW,337,6.0,14.0,90,0.00,,,0.10,,2013-04-24 14:21:00,
2013-04-24 10:32:00,34.0,31.0,29.86,NNW,331,9.0,16.0,89,0.00,,,0.10,,2013-04-24 14:32:00,
2013-04-24 10:41:00,34.0,31.0,29.86,NNW,331,9.0,16.0,89,0.00,,,0.10,,2013-04-24 14:41:00,
2013-04-24 10:52:00,34.0,31.0,29.85,North,351,7.0,20.0,87,0.00,,,0.10,,2013-04-24 14:52:00,
2013-04-24 11:01:00,34.0,30.0,29.86,NNE,20,9.0,16.0,86,0.00,,,0.10,,2013-04-24 15:01:00,
2013-04-24 11:11:00,34.0,30.0,29.86,NNE,20,9.0,16.0,86,0.00,,,0.10,,2013-04-24 15:11:00,
2013-04-24 11:22:00,34.0,30.0,29.86,NW,304,6.0,15.0,85,0.00,,,0.10,,2013-04-24 15:22:00,
2013-04-24 11:33:00,34.0,30.0,29.86,NNW,337,7.0,13.0,84,0.00,,,0.10,,2013-04-24 15:33:00,
2013-04-24 11:43:00,34.0,30.0,29.86,NNW,337,7.0,13.0,84,0.00,,,0.10,,2013-04-24 15:43:00,
2013-04-24 11:53:00,34.0,30.0,29.86,North,0,5.0,14.0,84,0.00,,,0.10,,2013-04-24 15:53:00,
2013-04-24 12:03:00,35.0,31.0,29.87,NW,326,7.0,16.0,84,0.00,,,0.10,,2013-04-24 16:03:00,
2013-04-24 12:12:00,35.0,31.0,29.87,NW,326,7.0,16.0,84,0.00,,,0.10,,2013-04-24 16:12:00,
2013-04-24 12:23:00,35.0,30.0,29.88,NNW,333,5.0,13.0,83,0.00,,,0.10,,2013-04-24 16:23:00,
2013-04-24 12:32:00,36.0,31.0,29.89,NNW,329,6.0,14.0,82,0.00,,,0.10,,2013-04-24 16:32:00,
2013-04-24 12:42:00,36.0,31.0,29.89,NNW,329,6.0,14.0,82,0.00,,,0.10,,2013-04-24 16:42:00,
2013-04-24 12:53:00,36.0,31.0,29.89,NW,320,3.0,16.0,81,0.00,,,0.10,,2013-04-24 16:53:00,
2013-04-24 13:02:00,36.0,30.0,29.89,NNW,338,1.0,14.0,79,0.00,,,0.10,,2013-04-24 17:02:00,
2013-04-24 13:12:00,36.0,30.0,29.89,NNW,338,1.0,14.0,79,0.00,,,0.10,,2013-04-24 17:12:00,
2013-04-24 13:22:00,37.0,30.0,29.88,NNE,15,5.0,12.0,77,0.00,,,0.10,,2013-04-24 17:22:00,
2013-04-24 13:32:00,37.0,30.0,29.87,NW,318,4.0,14.0,77,0.00,,,0.10,,2013-04-24 17:32:00,
2013-04-24 13:42:00,37.0,30.0,29.87,NW,318,4.0,14.0,77,0.00,,,0.10,,2013-04-24 17:42:00,
2013-04-24 13:52:00,38.0,31.0,29.87,NE,56,2.0,12.0,76,0.00,,,0.10,,2013-04-24 17:52:00,
2013-04-24 14:02:00,39.0,31.0,29.88,NW,326,5.0,14.0,74,0.00,,,0.10,,2013-04-24 18:02:00,
2013-04-24 14:12:00,39.0,31.0,29.88,NW,326,5.0,14.0,74,0.00,,,0.10,,2013-04-24 18:12:00,
2013-04-24 14:22:00,39.0,31.0,29.88,NNW,327,6.0,15.0,72,0.00,,,0.10,,2013-04-24 18:22:00,
2013-04-24 14:33:00,38.0,30.0,29.88,WNW,291,4.0,14.0,73,0.00,,,0.10,,2013-04-24 18:33:00,
2013-04-24 14:42:00,38.0,30.0,29.88,WNW,291,4.0,14.0,73,0.00,,,0.10,,2013-04-24 18:42:00,
2013-04-24 14:52:00,38.0,30.0,29.88,WNW,296,6.0,13.0,73,0.00,,,0.10,,2013-04-24 18:52:00,
2013-04-24 15:02:00,39.0,31.0,29.88,WNW,287,5.0,12.0,73,0.00,,,0.10,,2013-04-24 19:02:00,
2013-04-24 15:11:00,39.0,31.0,29.88,WNW,287,5.0,12.0,73,0.00,,,0.10,,2013-04-24 19:11:00,
2013-04-24 15:22:00,39.0,31.0,29.88,West,266,2.0,12.0,72,0.00,,,0.10,,2013-04-24 19:22:00,
2013-04-24 15:32:00,40.0,31.0,29.88,WNW,300,4.0,13.0,69,0.00,,,0.10,,2013-04-24 19:32:00,
2013-04-24 15:42:00,40.0,31.0,29.88,WNW,300,4.0,13.0,69,0.00,,,0.10,,2013-04-24 19:42:00,
2013-04-24 15:52:00,41.0,31.0,29.90,WNW,293,6.0,12.0,68,0.00,,,0.10,,2013-04-24 19:52:00,
2013-04-24 16:02:00,41.0,31.0,29.90,West,261,6.0,15.0,68,0.00,,,0.10,,2013-04-24 20:02:00,
2013-04-24 16:11:00,41.0,31.0,29.90,West,261,6.0,15.0,68,0.00,,,0.10,,2013-04-24 20:11:00,
2013-04-24 16:22:00,41.0,31.0,29.91,WNW,301,10.0,17.0,67,0.00,,,0.10,,2013-04-24 20:22:00,
2013-04-24 16:32:00,41.0,30.0,29.91,WNW,301,13.0,24.0,65,0.00,,,0.10,,2013-04-24 20:32:00,
2013-04-24 16:42:00,41.0,30.0,29.91,WNW,301,13.0,24.0,65,0.00,,,0.10,,2013-04-24 20:42:00,
2013-04-24 16:52:00,42.0,30.0,29.92,WNW,286,11.0,22.0,62,0.00,,,0.10,,2013-04-24 20:52:00,
2013-04-24 17:02:00,42.0,30.0,29.93,NW,305,10.0,21.0,61,0.00,,,0.10,,2013-04-24 21:02:00,
2013-04-24 17:11:00,42.0,30.0,29.93,NW,305,10.0,21.0,61,0.00,,,0.10,,2013-04-24 21:11:00,
2013-04-24 17:22:00,42.0,30.0,29.93,WNW,303,6.0,24.0,61,0.00,,,0.10,,2013-04-24 21:22:00,
2013-04-24 17:33:00,42.0,29.0,29.93,NNW,331,8.0,16.0,59,0.00,,,0.09,,2013-04-24 21:33:00,
2013-04-24 17:42:00,42.0,29.0,29.93,NNW,331,8.0,16.0,59,0.00,,,0.09,,2013-04-24 21:42:00,
2013-04-24 17:53:00,43.0,29.0,29.94,WNW,284,6.0,16.0,58,0.00,,,0.08,,2013-04-24 21:53:00,
2013-04-24 18:03:00,43.0,28.0,29.94,NNW,337,6.0,23.0,54,0.00,,,0.06,,2013-04-24 22:03:00,
2013-04-24 18:12:00,43.0,28.0,29.94,NNW,337,6.0,23.0,54,0.00,,,0.06,,2013-04-24 22:12:00,
2013-04-24 18:22:00,44.0,28.0,29.95,NW,321,8.0,16.0,54,0.00,,,0.03,,2013-04-24 22:22:00,
2013-04-24 18:33:00,44.0,27.0,29.96,NNW,327,5.0,15.0,51,0.00,,,0.03,,2013-04-24 22:33:00,
2013-04-24 18:42:00,44.0,27.0,29.96,NNW,327,5.0,15.0,51,0.00,,,0.03,,2013-04-24 22:42:00,
2013-04-24 18:52:00,44.0,25.0,29.96,West,260,8.0,17.0,47,0.00,,,0.02,,2013-04-24 22:52:00,
2013-04-24 19:02:00,45.0,26.0,29.96,WNW,282,4.0,17.0,47,0.00,,,0.01,,2013-04-24 23:02:00,
2013-04-24 19:12:00,45.0,26.0,29.96,WNW,282,4.0,17.0,47,0.00,,,0.01,,2013-04-24 23:12:00,
2013-04-24 19:21:00,45.0,26.0,29.96,West,268,5.0,13.0,47,0.00,,,0.00,,2013-04-24 23:21:00,
2013-04-24 19:32:00,45.0,27.0,29.97,West,262,3.0,13.0,48,0.00,,,0.00,,2013-04-24 23:32:00,
2013-04-24 19:42:00,45.0,27.0,29.97,West,262,3.0,13.0,48,0.00,,,0.00,,2013-04-24 23:42:00,
2013-04-24 19:52:00,44.0,26.0,29.97,West,263,5.0,14.0,48,0.00,,,0.00,,2013-04-24 23:52:00,
2013-04-24 20:02:00,44.0,27.0,29.98,West,260,3.0,10.0,50,0.00,,,0.00,,2013-04-25 00:02:00,
2013-04-24 20:12:00,44.0,27.0,29.98,West,260,3.0,10.0,50,0.00,,,0.00,,2013-04-25 00:12:00,
2013-04-24 20:20:00,44.0,28.0,29.99,West,272,0.0,5.0,52,0.00,,,0.00,,2013-04-25 00:20:00,
2013-04-24 20:22:00,44.0,27.0,29.98,West,272,1.0,6.0,51,0.00,,,0.00,,2013-04-25 00:22:00,
2013-04-24 20:32:00,44.0,28.0,29.99,West,272,0.0,5.0,52,0.00,,,0.00,,2013-04-25 00:32:00,
2013-04-24 20:42:00,44.0,28.0,29.99,West,272,0.0,5.0,52,0.00,,,0.00,,2013-04-25 00:42:00,
2013-04-24 20:52:00,44.0,28.0,29.99,West,272,0.0,5.0,52,0.00,,,0.00,,2013-04-25 00:52:00,
2013-04-24 21:02:00,44.0,28.0,29.99,West,272,0.0,5.0,52,0.00,,,0.00,,2013-04-25 01:02:00,
2013-04-24 21:11:00,44.0,28.0,29.99,West,272,0.0,5.0,52,0.00,,,0.00,,2013-04-25 01:11:00,